[[{"header":{"parameterUnit":"m.s-1","parameterCategory":1,"la1":30.2991,"la2":30.254,"lo1":-89.0895,"lo2":-89.0444,"dy":0.0017,"dx":0.0017,"nx":28,"ny":28,"refTime":"2025-08-04T21:00:00:Z","depth":0,"parameterNumber":2,"parameterNumberName":"U-component_of_WINDS"},"data":[0,0,0,0,0,0,0,0,0,0,0,0,0,0,0,0,0,0,0,0,0,0,0,0,0,0,0,0,0,0,0,0,0,0,0,0,0,0,0,0,0,0,0,0,0,0,0,0,0,0,0,0,0,0,0,0,0,0,-2.5712,-2.5712,0,-2.5688,-2.5688,-2.5687,-2.5628,-2.5627,-2.5625,-2.5624,-2.5602,-2.5602,-2.5603,0,0,0,0,0,0,0,0,0,0,0,0,0,-2.5709,-2.5709,-2.5712,-2.5712,-2.5711,-2.5688,-2.5688,-2.5687,-2.5628,-2.5627,-2.5625,-2.5624,-2.5601,-2.5602,-2.5603,0,0,0,0,0,0,0,0,0,0,0,0,0,-2.57,-2.5709,-2.5712,-2.5679,-2.5676,-2.5688,-2.5688,-2.5687,-2.5628,-2.5627,-2.5625,-2.5623,-2.5601,-2.5602,-2.5603,-2.5646,0,0,-2.5606,-2.5606,0,0,0,0,0,0,0,0,-2.5701,-2.57,-2.5684,-2.5681,-2.5678,-2.5659,-2.5678,-2.5673,-2.5629,-2.5646,-2.5624,-2.5622,-2.5622,-2.5621,-2.5621,-2.5645,-2.5644,-2.5606,-2.5606,-2.5606,-2.5607,0,0,0,0,0,0,0,-2.5701,-2.5701,-2.5702,-2.5684,-2.568,-2.5666,-2.5663,-2.5677,-2.5645,-2.5645,-2.564,-2.5638,-2.562,-2.562,-2.562,-2.5644,-2.5606,-2.5606,-2.5607,-2.5607,-2.5701,-2.5703,0,0,0,0,0,0,-2.5706,-2.5702,-2.5703,-2.5702,-2.5685,-2.5668,-2.5664,-2.5667,-2.5645,-2.564,-2.564,-2.5636,-2.562,-2.5619,-2.5619,-2.5667,-2.5606,-2.5607,-2.5608,-2.5699,-2.5702,-2.5704,0,0,0,0,0,0,-2.5707,-2.5707,-2.5704,-2.5701,-2.5699,-2.567,-2.5674,-2.5667,-2.5667,-2.5641,-2.5636,-2.5646,-2.5618,-2.5618,-2.5639,-2.5665,-2.5608,-2.5608,-2.5697,-2.57,-2.5703,-2.5764,0,0,0,0,0,0,-2.5707,-2.5707,-2.5723,-2.5701,-2.57,-2.5724,-2.5675,-2.5668,-2.5669,-2.5663,-2.5645,-2.564,-2.5617,-2.5638,-2.564,-2.5665,-2.5609,-2.5694,-2.5698,-2.5702,-2.5759,-2.5768,-2.5776,0,0,0,0,0,-2.5707,-2.5741,-2.5724,-2.5724,-2.5718,-2.5726,-2.5725,-2.5696,-2.5671,-2.5686,-2.567,-2.5641,-2.5663,-2.5641,-2.5643,-2.5669,-2.5693,-2.5697,-2.5701,-2.5755,-2.5767,-2.5776,0,0,0,0,0,0,-2.5767,-2.5738,-2.5718,-2.5747,-2.5739,-2.5716,-2.5734,-2.5709,-2.5709,-2.5704,-2.5669,-2.5666,-2.5692,-2.5683,-2.5659,-2.5709,-2.5673,-2.5678,-2.5713,-2.5724,-2.5732,-2.5733,-2.561,0,0,0,0,0,-2.5784,-2.5792,-2.5766,-2.5794,-2.5791,-2.5764,-2.5766,-2.5745,-2.5736,-2.5733,-2.5717,-2.5711,-2.5716,-2.572,-2.5723,-2.5759,-2.5753,-2.5777,-2.5786,-2.5793,-2.5797,-2.5814,-2.5824,-2.5718,-2.5718,-2.5718,0,0,-2.5818,-2.5803,-2.581,-2.5806,-2.5797,-2.5807,-2.5761,-2.5774,-2.578,-2.5735,-2.5753,-2.5743,-2.5733,-2.5761,-2.5773,-2.5754,-2.5826,-2.5799,-2.5805,-2.5804,-2.582,-2.583,-2.5839,-2.5721,-2.5721,-2.572,0,0,-2.5885,-2.5875,-2.5896,-2.5889,-2.5877,-2.5858,-2.5864,-2.5845,-2.5835,-2.5854,-2.5819,-2.5828,-2.5838,-2.5832,-2.583,-2.5896,-2.5869,-2.5899,-2.5942,-2.596,-2.5968,-2.5975,-2.5997,-2.6006,-2.5903,-2.5904,-2.5904,0,-2.5929,-2.5941,-2.5911,-2.5925,-2.5924,-2.5883,-2.5905,-2.5899,-2.589,-2.589,-2.5869,-2.5881,-2.5871,-2.5897,-2.5914,-2.5914,-2.5919,-2.5899,-2.5969,-2.5976,-2.5982,-2.6003,-2.6012,-2.5907,-2.5907,-2.5906,-2.5906,0,-2.5995,-2.6004,-2.6024,-2.6014,-2.6015,-2.6034,-2.6007,-2.6012,-2.5992,-2.5976,-2.5995,-2.5983,-2.5983,-2.5988,-2.5968,-2.6012,-2.6,-2.5975,-2.5938,-2.5996,-2.6015,-2.6023,-2.5912,-2.5911,-2.591,-2.5909,0,0,-2.6096,-2.6071,-2.6078,-2.6073,-2.6058,-2.6064,-2.6082,-2.6081,-2.6086,-2.6081,-2.6094,-2.6104,-2.6081,-2.6079,-2.6059,-2.6074,-2.6126,-2.6047,-2.6046,-2.6061,-2.6172,-2.6189,-2.6199,-2.6109,-2.6111,-2.6112,-2.6172,0,-2.6158,-2.6183,-2.6157,-2.6188,-2.6196,-2.6159,-2.6174,-2.6166,-2.6153,-2.6158,-2.6143,-2.615,-2.612,-2.6118,-2.6132,-2.6117,-2.6148,-2.6113,-2.612,-2.6121,-2.6121,-2.6209,-2.6227,-2.6284,-2.6179,-2.6181,-2.6182,0,-2.6232,-2.623,-2.6261,-2.6244,-2.6246,-2.626,-2.6257,-2.6263,-2.6254,-2.6243,-2.6242,-2.6217,-2.6233,-2.6199,-2.622,-2.6197,-2.6199,-2.6193,-2.6194,-2.6192,-2.6153,-2.6207,-2.6302,-2.631,-2.6193,-2.6192,-2.6192,0,-2.63,-2.6306,-2.6325,-2.6323,-2.6303,-2.6313,-2.6306,-2.6295,-2.6297,-2.6295,-2.6296,-2.6297,-2.6297,-2.6298,-2.6275,-2.6253,-2.6299,-2.6263,-2.629,-2.629,-2.6299,-2.6298,-2.6393,-2.6305,-2.6305,-2.6304,-2.6304,0,-2.637,-2.639,-2.6356,-2.6367,-2.639,-2.6361,-2.6384,-2.6372,-2.6364,-2.6373,-2.6342,-2.6352,-2.6321,-2.6328,-2.6311,-2.633,-2.6331,-2.6323,-2.6317,-2.6324,-2.6325,-2.6323,-2.6318,-2.6307,-2.6306,-2.6306,-2.6305,0,-2.6449,-2.6427,-2.6445,-2.6425,-2.6421,-2.6438,-2.6422,-2.6432,-2.6417,-2.6429,-2.6431,-2.6407,-2.6414,-2.6391,-2.6395,-2.6383,-2.6411,-2.6401,-2.6414,-2.6409,-2.6437,-2.6434,-2.6532,-2.6543,-2.645,-2.645,-2.6451,0,-2.6493,-2.6508,-2.649,-2.6494,-2.6488,-2.6495,-2.6496,-2.6469,-2.6471,-2.6463,-2.6475,-2.6478,-2.6479,-2.6492,-2.6475,-2.6478,-2.6465,-2.65,-2.6465,-2.6472,-2.6464,-2.6462,-2.6463,-2.6506,-2.6507,-2.6508,-2.6509,0,-2.6574,-2.6563,-2.6565,-2.6564,-2.6566,-2.6565,-2.6561,-2.6566,-2.6537,-2.6542,-2.6547,-2.6549,-2.6552,-2.6556,-2.6555,-2.6548,-2.6523,-2.6521,-2.6526,-2.6532,-2.6538,-2.6534,-2.6431,-2.6518,-2.6517,-2.6516,-2.6516,-2.6515,-2.6636,-2.6647,-2.6636,-2.664,-2.6634,-2.6632,-2.664,-2.6626,-2.6631,-2.663,-2.6615,-2.6624,-2.6615,-2.6611,-2.6607,-2.6614,-2.6598,-2.6607,-2.6609,-2.6611,-2.6615,-2.654,-2.6614,-2.6614,-2.6614,-2.6613,-2.6613,0,-2.6713,-2.6705,-2.6709,-2.6704,-2.6708,-2.6685,-2.668,-2.6684,-2.6692,-2.6686,-2.6688,-2.6695,-2.67,-2.6684,-2.6686,-2.6695,-2.6684,-2.6696,-2.6694,-2.6692,-2.663,-2.6624,-2.6705,-2.6705,-2.6705,-2.6705,-2.6705,-2.6705,-2.6754,-2.6771,-2.6759,-2.6773,-2.6765,-2.6773,-2.6771,-2.6769,-2.6764,-2.6773,-2.6776,-2.6766,-2.6756,-2.6757,-2.676,-2.6756,-2.6757,-2.6773,-2.6765,-2.6706,-2.6697,-2.6688,-2.6682,-2.6774,-2.6774,-2.6826,-2.6826,-2.6827]},{"header":{"parameterUnit":"m.s-1","parameterCategory":1,"la1":30.2991,"la2":30.254,"lo1":-89.0895,"lo2":-89.0444,"dy":0.0017,"dx":0.0017,"nx":28,"ny":28,"refTime":"2025-08-04T21:00:00:Z","depth":0,"parameterNumber":3,"parameterNumberName":"V-component_of_WINDS"},"data":[0,0,0,0,0,0,0,0,0,0,0,0,0,0,0,0,0,0,0,0,0,0,0,0,0,0,0,0,0,0,0,0,0,0,0,0,0,0,0,0,0,0,0,0,0,0,0,0,0,0,0,0,0,0,0,0,0,0,0.1426,0.1424,0,0.1254,0.1252,0.125,0.1154,0.1154,0.1153,0.1153,0.0972,0.0968,0.0964,0,0,0,0,0,0,0,0,0,0,0,0,0,0.1669,0.1665,0.1426,0.1424,0.1422,0.1254,0.1252,0.1249,0.1154,0.1154,0.1153,0.1153,0.0974,0.0969,0.0963,0,0,0,0,0,0,0,0,0,0,0,0,0,0.1537,0.1664,0.1426,0.1354,0.1346,0.1254,0.1251,0.1249,0.1154,0.1154,0.1153,0.1153,0.0976,0.0969,0.0962,0.0928,0,0,0.0941,0.0939,0,0,0,0,0,0,0,0,0.1544,0.1528,0.1367,0.1359,0.1349,0.1225,0.1271,0.1141,0.1154,0.1227,0.1153,0.1153,0.1056,0.1043,0.1011,0.092,0.0912,0.0941,0.0937,0.0934,0.0932,0,0,0,0,0,0,0,0.1553,0.1535,0.1358,0.1365,0.1354,0.1329,0.131,0.1246,0.1146,0.122,0.1213,0.1194,0.1052,0.1018,0.1007,0.091,0.0941,0.0935,0.0931,0.0928,0.0782,0.0782,0,0,0,0,0,0,0.1575,0.1543,0.1363,0.1352,0.1448,0.1325,0.1303,0.1265,0.1146,0.1128,0.1195,0.119,0.103,0.1015,0.1,0.0952,0.0934,0.0927,0.0924,0.0782,0.0782,0.0782,0,0,0,0,0,0,0.158,0.156,0.137,0.1446,0.142,0.1321,0.1279,0.1262,0.1229,0.1127,0.1108,0.1179,0.1029,0.1009,0.0947,0.0945,0.0924,0.0918,0.0781,0.0782,0.0782,0.0857,0,0,0,0,0,0,0.1588,0.1562,0.1549,0.1446,0.1416,0.1322,0.1279,0.1259,0.1218,0.121,0.1107,0.109,0.1027,0.0958,0.0941,0.0935,0.0913,0.0781,0.0781,0.0782,0.0855,0.086,0.0865,0,0,0,0,0,0.1597,0.1576,0.1549,0.1528,0.1398,0.1322,0.1304,0.1234,0.1218,0.1203,0.1138,0.1093,0.0948,0.0952,0.0932,0.0924,0.0781,0.0781,0.0782,0.0852,0.0859,0.0865,0,0,0,0,0,0,0.168,0.1561,0.153,0.1475,0.141,0.1306,0.1285,0.1243,0.1179,0.1175,0.1089,0.1067,0.1013,0.0962,0.0969,0.0885,0.086,0.0856,0.092,0.0926,0.0931,0.0944,0.0907,0,0,0,0,0,0.1692,0.1642,0.154,0.1502,0.1471,0.1384,0.1348,0.13,0.1228,0.1199,0.1129,0.1059,0.0998,0.0959,0.0897,0.0847,0.0823,0.0832,0.0837,0.0842,0.084,0.081,0.0812,0.0784,0.0784,0.0784,0,0,0.1716,0.1645,0.1618,0.1517,0.146,0.1409,0.1361,0.1308,0.1269,0.119,0.1128,0.1074,0.0991,0.0935,0.0907,0.0891,0.0842,0.0843,0.0847,0.0842,0.081,0.0813,0.0816,0.0784,0.0784,0.0784,0,0,0.1734,0.1676,0.1638,0.1582,0.1498,0.144,0.1432,0.1334,0.1296,0.1232,0.1172,0.1124,0.102,0.0963,0.0921,0.0919,0.0875,0.0901,0.0928,0.0899,0.0902,0.0903,0.0903,0.0903,0.0899,0.0899,0.0899,0,0.1774,0.1696,0.1623,0.1574,0.1531,0.146,0.142,0.1369,0.1268,0.124,0.1224,0.1093,0.1032,0.0962,0.0962,0.093,0.0916,0.0912,0.0908,0.0908,0.0909,0.0907,0.0907,0.0903,0.0902,0.0902,0.0902,0,0.175,0.1696,0.1675,0.1582,0.1536,0.1492,0.1412,0.1375,0.1331,0.1275,0.1211,0.1136,0.1057,0.1037,0.0993,0.0961,0.0954,0.0924,0.0896,0.0917,0.0913,0.0912,0.0908,0.0907,0.0906,0.0905,0,0,0.1814,0.1682,0.1675,0.1632,0.1534,0.149,0.1443,0.1368,0.1338,0.1271,0.1229,0.1143,0.1116,0.1068,0.1016,0.0992,0.0995,0.0965,0.0961,0.0973,0.0956,0.0979,0.0979,0.0966,0.0966,0.0966,0.0963,0,0.1817,0.1731,0.1664,0.1602,0.1552,0.1484,0.1442,0.1377,0.1324,0.1273,0.1213,0.1154,0.1122,0.1093,0.1065,0.1001,0.0991,0.1,0.0925,0.0924,0.0948,0.0977,0.1001,0.1002,0.0961,0.0961,0.096,0,0.181,0.1747,0.1681,0.1589,0.1565,0.153,0.1456,0.1408,0.1332,0.1295,0.1243,0.1191,0.1137,0.1115,0.104,0.1048,0.1013,0.0977,0.0975,0.0965,0.0943,0.0968,0.1,0.1,0.0958,0.0958,0.0958,0,0.1863,0.1762,0.1709,0.1675,0.1566,0.1543,0.1496,0.142,0.138,0.1315,0.1288,0.1217,0.1178,0.1125,0.1054,0.1045,0.0986,0.0959,0.0953,0.0955,0.0943,0.0945,0.0971,0.0922,0.0922,0.0922,0.0922,0,0.1874,0.1836,0.1732,0.17,0.1655,0.1579,0.1537,0.1484,0.1418,0.1373,0.1309,0.1269,0.1178,0.1127,0.1071,0.1017,0.1,0.0968,0.0954,0.0974,0.0978,0.0949,0.0947,0.0922,0.0922,0.0922,0.0922,0,0.1926,0.1855,0.1793,0.1696,0.1671,0.1642,0.1558,0.1524,0.1468,0.1412,0.1395,0.1307,0.1242,0.1167,0.1078,0.1041,0.0991,0.097,0.1017,0.1009,0.1008,0.1009,0.1016,0.1013,0.0968,0.0968,0.0969,0,0.1937,0.1907,0.1807,0.1773,0.1729,0.1676,0.1634,0.1558,0.1518,0.1431,0.1407,0.1338,0.1279,0.118,0.1107,0.1039,0.1015,0.1022,0.1004,0.1025,0.1015,0.1017,0.1014,0.1027,0.1028,0.1028,0.1029,0,0.1965,0.1932,0.1875,0.1807,0.176,0.1702,0.1642,0.1618,0.1529,0.1487,0.1421,0.1376,0.1286,0.1219,0.1141,0.1092,0.1046,0.1036,0.1031,0.105,0.1079,0.1063,0.103,0.1035,0.1035,0.1034,0.1034,0.1034,0.1996,0.1966,0.1892,0.1831,0.1778,0.1723,0.1687,0.1627,0.1571,0.1493,0.1451,0.1387,0.1313,0.1204,0.1157,0.1105,0.1089,0.1082,0.108,0.1079,0.1085,0.1088,0.109,0.109,0.109,0.1089,0.1089,0,0.202,0.197,0.1915,0.1833,0.1786,0.1748,0.1679,0.1642,0.1586,0.1522,0.1466,0.1391,0.1325,0.1248,0.1178,0.1151,0.1128,0.1135,0.1135,0.1125,0.1103,0.1114,0.1154,0.1154,0.1154,0.1154,0.1154,0.1154,0.2027,0.1975,0.1933,0.1853,0.1802,0.1739,0.1703,0.1652,0.16,0.152,0.1466,0.1417,0.1347,0.1271,0.1209,0.1188,0.1165,0.1178,0.1151,0.1132,0.1126,0.1121,0.1131,0.1174,0.1174,0.1176,0.1177,0.1177]}]]